Change the Weather History Date:

Saturday, January 12, 2013

  Actual Average (KAMA) Record (KAMA)
Temperature  
Mean Temperature 26 °F 37 °F  
Max Temperature 32 °F 50 °F 79 °F (1953)
Min Temperature 21 °F 23 °F -9 °F (1963)
Degree Days  
Heating Degree Days 38 28  
Month to date heating degree days 342  
Since 1 July heating degree days 2059  
Cooling Degree Days 0 0  
Month to date cooling degree days 0  
Year to date cooling degree days 0  
Moisture  
Dew Point 20 °F    
Average Humidity 76    
Maximum Humidity 93    
Minimum Humidity 55    
Precipitation  
Precipitation 0.00 in 0.02 in 0.27 in (1941)
Month to date precipitation 0.23  
Year to date precipitation 0.23  
Snow  
Snow 0.00 in 0.10 in 2.90 in (1997)
Month to date snowfall 1.4  
Since 1 July snowfall 7.8  
Snow Depth -    
Sea Level Pressure  
Sea Level Pressure 29.92 in    
Wind  
Wind Speed - (North)    
Max Wind Speed -    
Max Gust Speed -    
Visibility 10 miles    
Events Snow    
T = Trace of Precipitation, MM = Missing Value Source: NWS Daily Summary

Daily Weather History Graph

Daily Weather History Graph

Search for Another Location

Airport or City:

Trip Planner

Search our weather history database for the weather conditions in past years. The results will help you decide how hot, cold, wet, or windy it might be!

Date:

Astronomy

Jan. 12, 2013 Rise Set
Actual Time 7:57 AM CST 5:58 PM CST
Civil Twilight 7:29 AM CST 6:26 PM CST
Nautical Twilight 6:58 AM CST 6:57 PM CST
Astronomical Twilight 6:27 AM CST 7:27 PM CST
Moon 8:21 AM CST (1/12) 7:25 PM CST (1/12)
Length of Visible Light 10h 56m
Length of Day
10h 01m
New Moon, 1% of the Moon is Illuminated
Jan 12
New Moon
Jan 18
First Quarter
Jan 26
Full
Feb 3
Last Quarter
Feb 10
New

Hourly Weather History & Observations

Time (CST) Temp. Dew Point Humidity Pressure Visibility Wind Dir Wind Speed Gust Speed Precip Events Conditions
12:15 AM 28.4 °F 19.4 °F 69% 29.87 in 10.0 mi North - - N/A   Clear
12:35 AM 28.4 °F 17.6 °F 64% 29.88 in 10.0 mi North - - N/A   Clear
12:55 AM 26.6 °F 17.6 °F 69% 29.89 in 10.0 mi North - - N/A   Clear
1:15 AM 30.2 °F 15.8 °F 55% 29.89 in 10.0 mi North - - N/A   Clear
1:35 AM 26.6 °F 17.6 °F 69% 29.89 in 10.0 mi North - - N/A   Clear
1:55 AM 26.6 °F 19.4 °F 74% 29.88 in 10.0 mi North - - N/A   Clear
2:15 AM 26.6 °F 19.4 °F 74% 29.88 in 10.0 mi North - - N/A   Clear
2:35 AM 26.6 °F 19.4 °F 74% 29.89 in 10.0 mi North - - N/A   Clear
2:55 AM 26.6 °F 21.2 °F 80% 29.89 in 10.0 mi North - - N/A   Clear
3:15 AM 26.6 °F 19.4 °F 74% 29.89 in 10.0 mi North - - N/A   Clear
3:35 AM 26.6 °F 21.2 °F 80% 29.89 in 10.0 mi North - - N/A   Clear
3:55 AM 28.4 °F 19.4 °F 69% 29.89 in 10.0 mi North - - N/A   Clear
4:15 AM 28.4 °F 19.4 °F 69% 29.88 in 10.0 mi North - - N/A   Clear
4:35 AM 28.4 °F 19.4 °F 69% 29.88 in 10.0 mi North - - N/A   Clear
4:55 AM 28.4 °F 21.2 °F 74% 29.88 in 10.0 mi North - - N/A   Clear
5:15 AM 28.4 °F 21.2 °F 74% 29.88 in 10.0 mi North - - N/A   Clear
5:35 AM 28.4 °F 21.2 °F 74% 29.88 in 10.0 mi North - - N/A   Clear
5:55 AM 28.4 °F 21.2 °F 74% 29.88 in 10.0 mi North - - N/A   Clear
6:15 AM 28.4 °F 21.2 °F 74% 29.88 in 10.0 mi North - - N/A   Clear
6:35 AM 28.4 °F 19.4 °F 69% 29.89 in 10.0 mi North - - N/A   Clear
6:55 AM 28.4 °F 19.4 °F 69% 29.90 in 10.0 mi North - - N/A   Clear
7:15 AM 26.6 °F 19.4 °F 74% 29.91 in 10.0 mi North - - N/A   Clear
7:35 AM 26.6 °F 19.4 °F 74% 29.91 in 10.0 mi North - - N/A   Clear
7:55 AM 26.6 °F 19.4 °F 74% 29.91 in 10.0 mi North - - N/A   Clear
8:15 AM 28.4 °F 19.4 °F 69% 29.93 in 10.0 mi North - - N/A   Clear
8:35 AM 28.4 °F 19.4 °F 69% 29.93 in 10.0 mi North - - N/A   Clear
8:55 AM 30.2 °F 19.4 °F 64% 29.94 in 10.0 mi North - - N/A   Clear
9:15 AM 30.2 °F 19.4 °F 64% 29.94 in 10.0 mi North - - N/A   Clear
9:35 AM 30.2 °F 21.2 °F 69% 29.93 in 10.0 mi North - - N/A   Clear
9:55 AM 30.2 °F 21.2 °F 69% 29.94 in 10.0 mi North - - N/A   Clear
10:15 AM 30.2 °F 21.2 °F 69% 29.94 in 10.0 mi North - - N/A   Clear
10:35 AM 32.0 °F 23.0 °F 69% 29.94 in 10.0 mi North - - N/A   Clear
10:55 AM 32.0 °F 23.0 °F 69% 29.94 in 10.0 mi North - - N/A   Scattered Clouds
11:15 AM 32.0 °F 24.8 °F 75% 29.94 in 10.0 mi North - - N/A   Scattered Clouds
11:55 AM 32.0 °F 23.0 °F 69% 29.96 in 10.0 mi North - - N/A   Mostly Cloudy
12:15 PM 30.2 °F 23.0 °F 75% 29.96 in 10.0 mi North - - N/A   Overcast
12:35 PM 30.2 °F 23.0 °F 75% 29.95 in 10.0 mi North - - N/A   Mostly Cloudy
12:55 PM 30.2 °F 23.0 °F 75% 29.93 in 5.0 mi North - - N/A Snow Light Snow
1:15 PM 30.2 °F 23.0 °F 75% 29.93 in 7.0 mi North - - N/A Snow Light Snow
1:35 PM 30.2 °F 23.0 °F 75% 29.92 in 10.0 mi North - - N/A   Scattered Clouds
1:55 PM 30.2 °F 23.0 °F 75% 29.91 in 10.0 mi North - - N/A   Clear
2:15 PM 30.2 °F 23.0 °F 75% 29.89 in 10.0 mi North - - N/A   Clear
2:35 PM 30.2 °F 23.0 °F 75% 29.88 in 7.0 mi North - - N/A Snow Light Snow
2:55 PM 30.2 °F 23.0 °F 75% 29.89 in 10.0 mi North - - N/A   Scattered Clouds
3:15 PM 30.2 °F 23.0 °F 75% 29.89 in 10.0 mi North - - N/A   Mostly Cloudy
3:35 PM 30.2 °F 23.0 °F 75% 29.89 in 10.0 mi North - - N/A   Overcast
3:55 PM 28.4 °F 23.0 °F 80% 29.90 in 10.0 mi North - - N/A   Overcast
4:15 PM 28.4 °F 23.0 °F 80% 29.91 in 10.0 mi North - - N/A   Overcast
4:35 PM 28.4 °F 21.2 °F 74% 29.91 in 10.0 mi North - - N/A   Overcast
4:55 PM 26.6 °F 21.2 °F 80% 29.91 in 10.0 mi North - - N/A   Mostly Cloudy
5:15 PM 26.6 °F 21.2 °F 80% 29.92 in 10.0 mi North - - N/A   Mostly Cloudy
5:35 PM 26.6 °F 21.2 °F 80% 29.93 in 10.0 mi North - - N/A   Overcast
5:55 PM 24.8 °F 21.2 °F 86% 29.93 in 10.0 mi North - - N/A   Overcast
6:15 PM 24.8 °F 21.2 °F 86% 29.93 in 10.0 mi North - - N/A   Overcast
6:35 PM 24.8 °F 21.2 °F 86% 29.94 in 10.0 mi North - - N/A   Overcast
6:55 PM 23.0 °F 19.4 °F 86% 29.94 in 10.0 mi North - - N/A   Overcast
7:15 PM 23.0 °F 19.4 °F 86% 29.95 in 10.0 mi North - - N/A   Overcast
7:35 PM 23.0 °F 19.4 °F 86% 29.95 in 10.0 mi North - - N/A   Overcast
7:55 PM 23.0 °F 19.4 °F 86% 29.96 in 10.0 mi North - - N/A   Overcast
8:15 PM 21.2 °F 19.4 °F 93% 29.97 in 10.0 mi North - - N/A   Overcast
8:35 PM 21.2 °F 19.4 °F 93% 29.97 in 10.0 mi North - - N/A   Overcast
8:55 PM 21.2 °F 19.4 °F 93% 29.96 in 10.0 mi North - - N/A   Overcast
9:15 PM 21.2 °F 17.6 °F 86% 29.97 in 10.0 mi North - - N/A   Mostly Cloudy
9:35 PM 21.2 °F 17.6 °F 86% 29.97 in 10.0 mi North - - N/A   Overcast
9:55 PM 21.2 °F 17.6 °F 86% 29.97 in 7.0 mi North - - N/A   Overcast
10:15 PM 21.2 °F 17.6 °F 86% 29.98 in 10.0 mi North - - N/A   Mostly Cloudy
10:35 PM 21.2 °F 17.6 °F 86% 29.98 in 10.0 mi North - - N/A   Mostly Cloudy
10:55 PM 21.2 °F 17.6 °F 86% 29.99 in 10.0 mi North - - N/A   Scattered Clouds
11:15 PM 21.2 °F 17.6 °F 86% 30.00 in 10.0 mi North - - N/A   Mostly Cloudy
11:35 PM 21.2 °F 17.6 °F 86% 30.02 in 10.0 mi North - - N/A   Overcast
11:55 PM 21.2 °F 17.6 °F 86% 30.04 in 10.0 mi North - - N/A   Overcast